Showing default

CAPELLA-18 (ACADIA), 67385

Orbit data source: Space-Track

CAPELLA-18 (ACADIA), 67385 is a payload satellite owned by Capella Space (US) in SSO that was launched on Sun, 11 Jan 2026 UTC via an FALCON 9 launch vehicle from the Air Force Western Test Range (AFWTR). Payload-class satellites include a variety of spacecraft equipped with specific instruments for various scientific and technological missions. These include communications satellites like Starlink; space stations such as the ISS; scientific satellites like the Hubble; Earth observation satellites from companies like Planet Labs, Umbra, and HawkEye 360; GPS; miniature CubeSats for education and research; and military/defense satellites.

Loading next visibility...
Identifier
67385, 2026-004Y
Orbit
SSO
Country
Flag of USUS
Related business
Manufacturer
Capella Space
Mission
Operational Commercial Radar Imaging
Bus & Motor
ACADIA, Unknown motor
Mass
180 kg wet, ~150 kg dry
Launch date (UTC)
2026-01-11 (8 months ago)
Launch vehicle
FALCON 9
Launch site
Air Force Western Test Range (AFWTR)
Object type
Payload
Rocket body
Debris
Shape & HBR
Box + 2 Pan + 1 Dish + 1 Rod, 1.8 m
Radar Cross Section
0.463 m², Large (>1 m²)

Expand to show TLE details & history
Last TLE update: 13 hours ago

TLE from 13 hours ago
0 CAPELLA-18 (ACADIA)
1 67385U 26004Y   26264.25607900 -.00002749  00000-0 -30391-3 0  9993
2 67385  97.8036 261.0735 0001022  83.3221 276.8111 14.86639508 37558
Epoch: 2026-09-21T06:08Z
TLE epoch observation values (Epoch: 2026-09-21T06:08:45.225Z)
Latitude
-0.00004°
Longitude
168.74655°
Altitude
611.393 km
Speed
7.554 km/s
True Right ascension
17h 24m 17s
True Declination
0° 00' 00"
Sunlit
Object was in daylight at epoch
Visualization orbit readout
Latitude
Unknown
Longitude
Unknown
Altitude
Unknown
Speed
Unknown
Apparent Right ascension
Unknown
Apparent Declination
Unknown
Sunlit
N/A
Visualization observer readout
Local Sidereal Time
12:35:35
Azimuth
Unknown
Elevation
Unknown
Doppler factor
Unknown
Orbital elements
Apogee altitude
606.186 km
Perigee altitude
604.758 km
Semi-major axis
6,983.609 km
Eccentricity
0.0001
Inclination
97.8036°
RAAN
261.0735°
Arg. of periapsis
83.3221°
True anomaly
276.79947°
Mean anomaly
276.8111°
Eccentric anomaly
276.80529°
Mean motion
3.71898 °/min
Orbital period
96.8 mins
BSTAR
-0.00030391
Loading maneuver chart data...
Computing Atmospheric mass density...
Loading historical data...
Loading historical data...
Loading historical data...
Loading historical data...
Loading historical data...
Loading historical data...
Loading historical data...

Documentation

Showing up to 5 results
|